Date String (YYYY-MM-DD hh:mm:ss) UTC,Instrument flags,Ambient pressure (hPa),Sample flow (lpm),Bypass flow (lpm),Sample temperature (°C),Ambient temperature (°C),ASC tube jacket temperature (°C),LED temperature (°C),Box temperature (°C),Sample RH (%),Span deviation,Mass concentration (μg/m³),Mass concentration (μg/m³),Mass concentration (μg/m³)
DateTimeUTC,F1_M11,P_M11,Q1_M11,Q2_M11,T1_M11,T2_M11,T3_M11,T4_M11,T5_M11,U1_M11,ZSPAN_M11,X0_M11,X2_M11,X1_M11
2022-03-14 13:00:00,,0826.9,5.01,0.00,23.7,22.9,00.0,32.7,25.5,07.9,0000.0,0006.93,0001.65,0000.67
2022-03-14 13:01:00,,0827.0,5.00,0.00,23.7,22.9,00.0,32.7,25.5,08.0,0000.0,0006.79,0001.61,0000.67
2022-03-14 13:02:00,,0827.0,4.98,0.00,23.7,22.9,00.0,32.7,25.5,08.2,0000.0,0007.08,0001.66,0000.67
2022-03-14 13:03:00,,0827.0,5.00,0.00,23.7,22.9,00.0,32.7,25.5,08.5,0000.0,0007.40,0001.76,0000.67
2022-03-14 13:04:00,,0827.0,5.00,0.00,23.7,22.8,00.0,32.7,25.5,08.6,0000.0,0007.05,0001.78,0000.66
2022-03-14 13:05:00,,0827.0,5.00,0.00,23.7,22.8,00.0,32.7,25.4,08.7,0000.0,0007.34,0001.88,0000.66
2022-03-14 13:06:00,,0827.0,5.01,0.00,23.7,22.8,00.0,32.7,25.4,08.6,0000.0,0007.33,0001.90,0000.68
2022-03-14 13:07:00,,0827.1,4.99,0.00,23.7,22.8,00.0,32.7,25.4,08.6,0000.0,0008.15,0002.00,0000.69
2022-03-14 13:08:00,,0827.1,5.01,0.00,23.7,22.8,00.0,32.7,25.4,08.5,0000.0,0009.56,0002.07,0000.71
2022-03-14 13:09:00,,0827.1,5.01,0.00,23.6,22.8,00.0,32.7,25.4,08.4,0000.0,0009.59,0002.09,0000.71
2022-03-14 13:10:00,,0827.1,4.98,0.00,23.6,22.8,00.0,32.7,25.3,08.3,0000.0,0010.08,0002.13,0000.71
2022-03-14 13:11:00,,0827.1,5.01,0.00,23.6,22.7,00.0,32.7,25.3,08.3,0000.0,0010.78,0002.18,0000.72
2022-03-14 13:12:00,,0827.2,5.00,0.00,23.6,22.7,00.0,32.6,25.3,08.1,0000.0,0010.95,0002.21,0000.72
2022-03-14 13:13:00,,0827.2,5.00,0.00,23.6,22.7,00.0,32.6,25.3,08.0,0000.0,0011.15,0002.26,0000.73
2022-03-14 13:14:00,,0827.1,4.99,0.00,23.6,22.7,00.0,32.6,25.3,08.1,0000.0,0011.11,0002.23,0000.74
2022-03-14 13:15:00,,0827.1,5.01,0.00,23.6,22.7,00.0,32.6,25.3,08.1,0000.0,0011.22,0002.28,0000.75
2022-03-14 13:16:00,,0827.2,4.98,0.00,23.6,22.7,00.0,32.6,25.3,07.9,0000.0,0011.35,0002.31,0000.76
2022-03-14 13:17:00,,0827.6,5.01,0.00,23.6,22.7,00.0,32.6,25.3,08.0,0000.0,0011.48,0002.23,0000.74
2022-03-14 13:18:00,,0827.3,5.01,0.00,23.6,22.7,00.0,32.6,25.3,08.1,0000.0,0011.03,0002.13,0000.73
2022-03-14 13:19:00,,0827.3,4.98,0.00,23.6,22.7,00.0,32.6,25.3,08.0,0000.0,0010.11,0002.07,0000.72
2022-03-14 13:20:00,,0827.3,5.01,0.00,23.6,22.7,00.0,32.6,25.3,08.0,0000.0,0009.59,0002.04,0000.72
2022-03-14 13:21:00,,0827.3,5.00,0.00,23.6,22.7,00.0,32.6,25.3,08.0,0000.0,0009.04,0001.97,0000.72
2022-03-14 13:22:00,,0827.4,4.99,0.00,23.6,22.7,00.0,32.6,25.3,08.0,0000.0,0008.25,0001.92,0000.70
2022-03-14 13:23:00,,0827.4,4.99,0.00,23.6,22.7,00.0,32.6,25.3,08.0,0000.0,0008.29,0001.92,0000.69
2022-03-14 13:24:00,,0827.4,5.00,0.00,23.6,22.7,00.0,32.6,25.3,08.2,0000.0,0008.07,0001.87,0000.68
2022-03-14 13:25:00,,0827.4,5.01,0.00,23.6,22.7,00.0,32.5,25.3,08.3,0000.0,0008.00,0001.86,0000.68
2022-03-14 13:26:00,,0827.5,5.00,0.00,23.6,22.7,00.0,32.5,25.3,08.3,0000.0,0008.11,0001.84,0000.68
2022-03-14 13:27:00,,0827.5,4.99,0.00,23.6,22.7,00.0,32.5,25.3,08.3,0000.0,0007.96,0001.69,0000.66
2022-03-14 13:28:00,,0827.5,5.00,0.00,23.6,22.7,00.0,32.5,25.3,08.2,0000.0,0007.53,0001.69,0000.66
2022-03-14 13:29:00,,0827.7,5.00,0.00,23.6,22.7,00.0,32.5,25.3,08.3,0000.0,0007.12,0001.62,0000.66
2022-03-14 13:30:00,,0827.7,5.00,0.00,23.5,22.7,00.0,32.5,25.3,08.3,0000.0,0005.59,0001.57,0000.66
2022-03-14 13:31:00,,0827.7,5.00,0.00,23.5,22.7,00.0,32.5,25.3,08.3,0000.0,0005.31,0001.52,0000.65
2022-03-14 13:32:00,,0827.6,5.01,0.00,23.6,22.7,00.0,32.5,25.3,08.3,0000.0,0005.92,0001.60,0000.66
2022-03-14 13:33:00,,0827.7,4.99,0.00,23.6,22.7,00.0,32.5,25.3,08.4,0000.0,0007.81,0001.66,0000.67
2022-03-14 13:34:00,,0827.7,5.01,0.00,23.6,22.7,00.0,32.5,25.3,08.5,0000.0,0007.72,0001.64,0000.67
2022-03-14 13:35:00,,0827.7,4.99,0.00,23.6,22.7,00.0,32.5,25.3,08.6,0000.0,0007.59,0001.60,0000.67
2022-03-14 13:36:00,,0827.7,5.01,0.00,23.6,22.7,00.0,32.5,25.3,08.7,0000.0,0007.58,0001.59,0000.66
2022-03-14 13:37:00,,0827.7,5.01,0.00,23.5,22.7,00.0,32.5,25.3,08.8,0000.0,0007.50,0001.56,0000.65
2022-03-14 13:38:00,,0827.7,5.00,0.00,23.5,22.7,00.0,32.5,25.3,08.8,0000.0,0007.87,0001.61,0000.65
2022-03-14 13:39:00,,0827.7,4.99,0.00,23.5,22.7,00.0,32.5,25.3,08.8,0000.0,0007.87,0001.62,0000.65
2022-03-14 13:40:00,,0827.7,5.00,0.00,23.5,22.7,00.0,32.5,25.3,08.8,0000.0,0007.94,0001.67,0000.66
2022-03-14 13:41:00,,0827.7,5.01,0.00,23.5,22.7,00.0,32.5,25.2,09.0,0000.0,0007.96,0001.79,0000.67
2022-03-14 13:42:00,,0827.8,4.98,0.00,23.5,22.7,00.0,32.5,25.2,09.1,0000.0,0008.07,0001.90,0000.67
2022-03-14 13:43:00,,0827.8,5.01,0.00,23.5,22.7,00.0,32.5,25.2,09.4,0000.0,0008.16,0001.89,0000.69
2022-03-14 13:44:00,,0827.8,5.00,0.00,23.5,22.7,00.0,32.5,25.2,09.4,0000.0,0006.99,0001.81,0000.70
2022-03-14 13:45:00,,0827.8,5.00,0.00,23.5,22.6,00.0,32.5,25.2,09.5,0000.0,0007.61,0001.90,0000.71
2022-03-14 13:46:00,,0827.8,5.00,0.00,23.4,22.6,00.0,32.5,25.2,09.6,0000.0,0007.89,0001.97,0000.72
2022-03-14 13:47:00,,0827.8,5.00,0.00,23.4,22.6,00.0,32.4,25.2,09.7,0000.0,0007.98,0002.00,0000.74
2022-03-14 13:48:00,,0827.9,4.99,0.00,23.4,22.6,00.0,32.4,25.2,09.7,0000.0,0007.98,0002.04,0000.76
2022-03-14 13:49:00,,0827.9,5.00,0.00,23.4,22.6,00.0,32.4,25.1,09.8,0000.0,0007.43,0002.11,0000.78
2022-03-14 13:50:00,,0827.9,5.00,0.00,23.4,22.6,00.0,32.4,25.1,09.8,0000.0,0007.45,0002.10,0000.79
2022-03-14 13:51:00,,0827.9,5.01,0.00,23.4,22.6,00.0,32.4,25.1,09.9,0000.0,0007.50,0002.16,0000.80
2022-03-14 13:52:00,,0828.0,4.99,0.00,23.4,22.6,00.0,32.4,25.1,10.0,0000.0,0007.38,0002.10,0000.82
2022-03-14 13:53:00,,0828.0,5.01,0.00,23.4,22.6,00.0,32.4,25.1,09.9,0000.0,0007.29,0002.07,0000.83
2022-03-14 13:54:00,,0828.2,5.01,0.00,23.4,22.6,00.0,32.4,25.1,09.9,0000.0,0006.96,0002.06,0000.84
2022-03-14 13:55:00,,0828.2,4.99,0.00,23.4,22.6,00.0,32.4,25.1,10.0,0000.0,0006.09,0002.05,0000.85
2022-03-14 13:56:00,,0828.1,5.00,0.00,23.4,22.6,00.0,32.4,25.1,09.9,0000.0,0005.26,0001.99,0000.85
2022-03-14 13:57:00,,0828.1,5.01,0.00,23.4,22.6,00.0,32.4,25.1,09.9,0000.0,0005.16,0002.00,0000.86
2022-03-14 13:58:00,,0828.1,4.99,0.00,23.4,22.6,00.0,32.4,25.1,10.0,0000.0,0005.44,0002.02,0000.88
2022-03-14 13:59:00,,0828.2,5.00,0.00,23.4,22.6,00.0,32.4,25.1,10.1,0000.0,0005.35,0001.97,0000.88
